TimeEST,TemperatureF,Dew PointF,Humidity,Sea Level PressureIn,VisibilityMPH,Wind Direction,Wind SpeedMPH,Gust SpeedMPH,PrecipitationIn,Events,Conditions,WindDirDegrees,DateUTC
12:53 AM,12.0,5.0,73,29.97,10.0,West,6.9,-,N/A,,Overcast,270,2014-01-18 05:53:00
1:53 AM,9.0,3.9,80,29.96,10.0,WSW,5.8,-,N/A,,Clear,250,2014-01-18 06:53:00
2:53 AM,6.1,3.0,87,29.97,10.0,WSW,5.8,-,N/A,,Clear,250,2014-01-18 07:53:00
3:53 AM,3.9,1.9,91,29.98,10.0,WSW,4.6,-,N/A,,Clear,250,2014-01-18 08:53:00
4:53 AM,3.9,1.0,88,29.97,10.0,WSW,5.8,-,N/A,,Clear,250,2014-01-18 09:53:00
5:53 AM,3.9,1.0,88,29.97,9.0,SW,5.8,-,N/A,,Clear,230,2014-01-18 10:53:00
6:53 AM,3.9,1.9,91,29.97,8.0,WSW,4.6,-,N/A,,Partly Cloudy,240,2014-01-18 11:53:00
7:42 AM,6.8,3.2,85,29.91,9.0,WSW,8.1,-,N/A,,Mostly Cloudy,240,2014-01-18 12:42:00
7:53 AM,7.0,3.9,87,29.96,8.0,WSW,6.9,-,N/A,,Overcast,240,2014-01-18 12:53:00
8:53 AM,9.0,6.1,88,29.97,8.0,WSW,8.1,-,N/A,,Overcast,240,2014-01-18 13:53:00
9:53 AM,12.0,8.1,84,29.99,9.0,WSW,10.4,-,N/A,,Overcast,240,2014-01-18 14:53:00
10:53 AM,14.0,9.0,80,30.00,6.0,WSW,10.4,-,0.00,,Haze,240,2014-01-18 15:53:00
11:53 AM,15.1,10.0,80,29.98,9.0,SW,13.8,-,N/A,,Overcast,220,2014-01-18 16:53:00
12:53 PM,16.0,10.0,77,29.96,10.0,SW,10.4,-,N/A,,Overcast,230,2014-01-18 17:53:00
1:53 PM,17.1,10.0,74,29.94,10.0,WSW,9.2,-,N/A,,Overcast,240,2014-01-18 18:53:00
2:53 PM,17.1,10.9,77,29.93,10.0,SW,10.4,-,N/A,,Overcast,220,2014-01-18 19:53:00
3:12 PM,17.6,10.4,73,29.87,10.0,SSW,11.5,-,N/A,,Scattered Clouds,210,2014-01-18 20:12:00
3:53 PM,17.1,10.0,74,29.93,10.0,SSW,10.4,-,N/A,,Mostly Cloudy,200,2014-01-18 20:53:00
4:28 PM,17.6,10.4,73,29.87,10.0,SSW,10.4,-,N/A,,Mostly Cloudy,200,2014-01-18 21:28:00
4:38 PM,17.6,10.4,73,29.87,10.0,SSW,9.2,-,N/A,,Mostly Cloudy,200,2014-01-18 21:38:00
4:53 PM,17.1,10.0,74,29.93,10.0,South,9.2,-,N/A,,Overcast,190,2014-01-18 21:53:00
5:21 PM,15.8,10.4,79,29.87,6.0,South,6.9,-,N/A,,Haze,190,2014-01-18 22:21:00
5:53 PM,17.1,12.0,81,29.94,8.0,South,9.2,-,N/A,,Overcast,190,2014-01-18 22:53:00
6:12 PM,17.6,12.2,79,29.88,10.0,South,5.8,-,N/A,,Overcast,170,2014-01-18 23:12:00
6:43 PM,17.6,12.2,79,29.88,2.0,SSE,5.8,-,0.00,Snow,Light Snow,160,2014-01-18 23:43:00
6:53 PM,16.0,12.0,84,29.94,2.0,South,4.6,-,0.00,Snow,Light Snow,170,2014-01-18 23:53:00
7:01 PM,15.8,12.2,86,29.88,2.0,South,4.6,-,0.00,Snow,Light Snow,170,2014-01-19 00:01:00
7:22 PM,15.8,12.2,86,29.88,1.8,Calm,Calm,-,0.00,Snow,Light Snow,0,2014-01-19 00:22:00
7:42 PM,15.8,12.2,86,29.88,1.5,SSE,3.5,-,0.00,Snow,Light Snow,150,2014-01-19 00:42:00
7:53 PM,16.0,12.9,88,29.93,1.5,Calm,Calm,-,0.00,Snow,Light Snow,0,2014-01-19 00:53:00
8:15 PM,15.8,12.2,86,29.88,1.2,Calm,Calm,-,0.00,Snow,Light Snow,0,2014-01-19 01:15:00
8:33 PM,15.8,12.2,86,29.87,1.8,Calm,Calm,-,0.00,Snow,Light Snow,0,2014-01-19 01:33:00
8:43 PM,15.8,12.2,86,29.86,2.5,Calm,Calm,-,0.00,Snow,Light Snow,0,2014-01-19 01:43:00
8:53 PM,16.0,14.0,92,29.91,3.0,ESE,3.5,-,0.00,Snow,Light Snow,110,2014-01-19 01:53:00
9:01 PM,17.6,12.2,79,29.86,5.0,East,3.5,-,0.00,Snow,Light Snow,100,2014-01-19 02:01:00
9:53 PM,16.0,12.9,88,29.89,5.0,Calm,Calm,-,0.00,Snow,Light Snow,0,2014-01-19 02:53:00
10:42 PM,14.0,12.2,93,29.83,2.5,East,3.5,-,0.00,Snow,Light Snow,80,2014-01-19 03:42:00
10:48 PM,14.0,10.4,86,29.83,3.0,ENE,3.5,-,0.00,Snow,Light Snow,70,2014-01-19 03:48:00
10:53 PM,14.0,10.9,88,29.87,4.0,East,3.5,-,0.00,Snow,Light Snow,90,2014-01-19 03:53:00
11:48 PM,15.8,12.2,86,29.78,2.5,SE,3.5,-,0.00,Snow,Light Snow,130,2014-01-19 04:48:00
11:53 PM,15.1,12.9,91,29.83,2.5,Calm,Calm,-,0.00,Snow,Light Snow,0,2014-01-19 04:53:00